Great Falls, MT

4:52 AM MDT on May 28, 2018 (GMT -0600)
Great Falls International

Weather History for KGTF - January, 2013

Change the Weather History Date:

Wednesday, January 30, 2013

  Actual Average Record
Temperature  
Mean Temperature 25 °F 26 °F  
Max Temperature 38 °F 36 °F 62 °F (1989)
Min Temperature 11 °F 16 °F -41 °F (1916)
Degree Days  
Heating Degree Days 40 39  
Month to date heating degree days 1057 1194  
Since 1 July heating degree days 3880 4411  
Cooling Degree Days 0 0  
Month to date cooling degree days 0 0  
Year to date cooling degree days 0 0  
Moisture  
Dew Point 15 °F    
Average Humidity 71    
Maximum Humidity 81    
Minimum Humidity 61    
Precipitation  
Precipitation 0.01 in 0.01 in 0.64 in (1974)
Month to date precipitation 0.61 0.49  
Year to date precipitation 0.61 0.49  
Snow  
Snow 0.20 in 0.20 in 5.30 in (1974)
Month to date snowfall 13.9 8.3  
Since 1 July snowfall 46.2 31.5  
Snow Depth 2.00 in    
Sea Level Pressure  
Sea Level Pressure 30.07 in    
Wind  
Wind Speed 10 mph (NNE)    
Max Wind Speed 18 mph    
Max Gust Speed 26 mph    
Visibility 8 miles    
Events Snow    
T = Trace of Precipitation, MM = Missing Value Source: NWS Daily Summary

Daily Weather History Graph

Daily Weather History Graph

Search for Another Location

Airport or City:

Astronomy

Jan. 30, 2013 Rise Set
Actual Time 7:53 AM MST 5:24 PM MST
Civil Twilight 7:20 AM MST 5:57 PM MST
Nautical Twilight 6:43 AM MST 6:34 PM MST
Astronomical Twilight 6:07 AM MST 7:10 PM MST
Moon 9:48 PM MST (1/30) 9:04 AM MST (1/30)
Length of Visible Light 10h 36m
Length of Day
9h 30m
Waning Gibbous, 87% of the Moon is Illuminated
Jan 30
Waning Gibbous
Feb 3
Last Quarter
Feb 10
New
Feb 17
First Quarter
Feb 25
Full

Hourly Weather History & Observations

Time (MST) Temp. Windchill Dew Point Humidity Pressure Visibility Wind Dir Wind Speed Gust Speed Precip Events Conditions
12:53 AM 17.1 °F 5.0 °F 8.1 °F 68% 30.06 in 10.0 mi SSW 10.4 mph - N/A   Overcast
1:53 AM 21.0 °F 7.6 °F 12.0 °F 68% 30.04 in 10.0 mi SSW 15.0 mph - N/A   Overcast
2:53 AM 23.0 °F 9.6 °F 14.0 °F 68% 30.00 in 10.0 mi SSW 16.1 mph - N/A   Overcast
3:53 AM 25.0 °F 13.1 °F 16.0 °F 69% 29.99 in 10.0 mi SW 13.8 mph - N/A   Overcast
4:53 AM 27.0 °F 16.1 °F 18.0 °F 69% 30.00 in 10.0 mi SW 12.7 mph - N/A   Overcast
5:53 AM 27.0 °F 16.1 °F 18.0 °F 69% 29.99 in 10.0 mi SW 12.7 mph - N/A   Mostly Cloudy
6:53 AM 30.0 °F 20.5 °F 19.0 °F 64% 29.98 in 10.0 mi SW 11.5 mph - N/A   Overcast
7:53 AM 30.9 °F 21.2 °F 21.0 °F 67% 29.98 in 10.0 mi SW 12.7 mph - N/A   Mostly Cloudy
8:53 AM 34.0 °F 25.0 °F 21.9 °F 61% 29.98 in 10.0 mi SW 12.7 mph - N/A   Overcast
9:53 AM 34.0 °F 26.6 °F 24.1 °F 67% 29.99 in 10.0 mi SW 9.2 mph - N/A   Overcast
10:53 AM 35.1 °F 27.9 °F 26.1 °F 70% 30.00 in 10.0 mi WSW 9.2 mph - N/A   Overcast
11:53 AM 37.0 °F 27.0 °F 26.1 °F 65% 30.00 in 10.0 mi North 18.4 mph 26.5 mph N/A   Overcast
12:53 PM 28.0 °F 18.6 °F 18.0 °F 66% 30.04 in 10.0 mi NNE 10.4 mph - N/A   Overcast
1:53 PM 28.0 °F 21.7 °F 17.1 °F 63% 30.06 in 10.0 mi NE 5.8 mph - N/A   Overcast
2:53 PM 28.0 °F - 18.0 °F 66% 30.09 in 10.0 mi Calm Calm - N/A   Overcast
3:53 PM 27.0 °F 21.6 °F 17.1 °F 66% 30.11 in 10.0 mi NNW 4.6 mph - N/A   Overcast
4:02 PM 26.6 °F 19.1 °F 17.6 °F 69% 29.95 in 10.0 mi North 6.9 mph - N/A   Overcast
4:53 PM 23.0 °F 15.8 °F 17.1 °F 78% 30.13 in 10.0 mi North 5.8 mph - N/A   Overcast
5:53 PM 21.9 °F 12.5 °F 16.0 °F 78% 30.15 in 10.0 mi NE 8.1 mph - N/A   Overcast
6:25 PM 19.4 °F 10.4 °F 15.8 °F 86% 30.00 in 2.5 mi NNE 6.9 mph - 0.00 in Snow Light Snow
6:35 PM 19.4 °F 10.4 °F 15.8 °F 86% 30.00 in 1.5 mi NNE 6.9 mph - 0.01 in Snow Light Snow
6:46 PM 19.4 °F 9.5 °F 15.8 °F 86% 30.01 in 3.0 mi NNE 8.1 mph - 0.01 in Snow Light Snow
6:53 PM 19.0 °F 7.5 °F 14.0 °F 81% 30.17 in 3.0 mi NE 10.4 mph - 0.01 in Snow Light Snow
7:53 PM 16.0 °F 4.4 °F 10.0 °F 77% 30.21 in 10.0 mi NNE 9.2 mph - 0.00 in   Overcast
8:32 PM 15.8 °F 8.6 °F 10.4 °F 79% 30.05 in 1.8 mi NNE 4.6 mph - 0.00 in Snow Light Snow
8:46 PM 15.8 °F 7.2 °F 10.4 °F 79% 30.06 in 2.5 mi NE 5.8 mph - 0.00 in Snow Light Snow
8:53 PM 16.0 °F 7.4 °F 10.0 °F 77% 30.23 in 5.0 mi NNE 5.8 mph - 0.00 in Snow Light Snow
9:53 PM 15.1 °F 9.4 °F 9.0 °F 77% 30.24 in 10.0 mi East 3.5 mph - 0.00 in   Overcast
10:06 PM 15.8 °F 10.2 °F 8.6 °F 73% 30.08 in 10.0 mi ENE 3.5 mph - N/A   Overcast
10:53 PM 15.1 °F 7.7 °F 9.0 °F 77% 30.25 in 10.0 mi NNE 4.6 mph - N/A   Overcast
11:05 PM 15.8 °F 7.2 °F 8.6 °F 73% 30.10 in 10.0 mi NE 5.8 mph - N/A   Overcast
11:53 PM 12.0 °F 2.7 °F 7.0 °F 80% 30.25 in 10.0 mi East 5.8 mph - N/A   Overcast